Roanoke, VA

3:47 PM EST on December 06, 2019 (GMT -0500)
Roanoke Regional-Woodrum

Weather History for KROA - October, 2019

Change the Weather History Date:

Wednesday, October 2, 2019

  Actual Average Record
Temperature  
Mean Temperature 82 °F 62 °F  
Max Temperature 94 °F 73 °F 94 °F (2019)
Min Temperature 69 °F 51 °F 33 °F (1947)
Degree Days  
Heating Degree Days 0 5  
Month to date heating degree days 0 9  
Since 1 July heating degree days 1 58  
Cooling Degree Days 17 2  
Month to date cooling degree days 32 4  
Year to date cooling degree days 1716 1190  
Growing Degree Days 31 (Base 50)    
Moisture  
Dew Point 65 °F    
Average Humidity 65    
Maximum Humidity 93    
Minimum Humidity 36    
Precipitation  
Precipitation 0.00 in 0.09 in 4.03 in (1929)
Month to date precipitation 0.00 0.18  
Year to date precipitation 32.06 32.20  
Snow  
Snow 0.00 in - - ()
Month to date snowfall 0.0  
Since 1 July snowfall T  
Since 1 September snowfall 0.0  
Snow Depth 0.00 in    
Sea Level Pressure  
Sea Level Pressure 29.98 in    
Wind  
Wind Speed 5 mph (WNW)    
Max Wind Speed 21 mph    
Max Gust Speed 24 mph    
Visibility 10 miles    
Events      
T = Trace of Precipitation, MM = Missing Value Source: NWS Daily Summary

Daily Weather History Graph

Daily Weather History Graph

Search for Another Location

Airport or City:

Astronomy

Oct. 02, 2019 Rise Set
Actual Time 7:16 AM EDT 7:01 PM EDT
Civil Twilight 6:50 AM EDT 7:27 PM EDT
Nautical Twilight 6:19 AM EDT 7:58 PM EDT
Astronomical Twilight 5:49 AM EDT 8:28 PM EDT
Moon 11:34 AM EDT (10/2) 10:00 PM EDT (10/2)
Length of Visible Light 12h 37m
Length of Day
11h 45m
Waxing Crescent, 20% of the Moon is Illuminated
Oct 2
Waxing Crescent
Oct 5
First Quarter
Oct 13
Full
Oct 21
Last Quarter
Oct 27
New

Hourly Weather History & Observations

Time (EDT) Temp. Heat Index Dew Point Humidity Pressure Visibility Wind Dir Wind Speed Gust Speed Precip Events Conditions
12:54 AM 72.0 °F - 69.1 °F 91% 30.01 in 10.0 mi Calm Calm - N/A   Clear
1:54 AM 72.0 °F - 69.1 °F 91% 30.01 in 10.0 mi Calm Calm - N/A   Clear
2:54 AM 72.0 °F - 68.0 °F 87% 30.00 in 10.0 mi Calm Calm - N/A   Clear
3:54 AM 71.1 °F - 68.0 °F 90% 29.99 in 10.0 mi Calm Calm - N/A   Clear
4:54 AM 72.0 °F - 68.0 °F 87% 30.00 in 10.0 mi Calm Calm - N/A   Clear
5:54 AM 71.1 °F - 68.0 °F 90% 30.00 in 10.0 mi North 3.5 mph - N/A   Clear
6:54 AM 71.1 °F - 66.9 °F 87% 30.02 in 10.0 mi Calm Calm - N/A   Clear
7:54 AM 73.0 °F - 68.0 °F 84% 30.03 in 10.0 mi NW 5.8 mph - N/A   Clear
8:54 AM 75.0 °F - 68.0 °F 79% 30.04 in 10.0 mi WNW 5.8 mph - N/A   Partly Cloudy
9:54 AM 79.0 °F - 68.0 °F 69% 30.04 in 10.0 mi WNW 4.6 mph - N/A   Partly Cloudy
10:54 AM 84.0 °F 86.5 °F 66.9 °F 56% 30.02 in 10.0 mi WSW 9.2 mph - N/A   Partly Cloudy
11:54 AM 88.0 °F 89.6 °F 64.9 °F 46% 30.01 in 10.0 mi WSW 6.9 mph - N/A   Partly Cloudy
12:54 PM 91.9 °F 92.9 °F 63.0 °F 38% 29.99 in 10.0 mi WNW 11.5 mph - N/A   Scattered Clouds
1:54 PM 89.1 °F 89.3 °F 62.1 °F 40% 29.98 in 10.0 mi NW 11.5 mph 17.3 mph N/A   Scattered Clouds
2:54 PM 91.9 °F 92.5 °F 62.1 °F 37% 29.95 in 10.0 mi WSW 16.1 mph 20.7 mph N/A   Partly Cloudy
3:54 PM 93.9 °F 95.2 °F 63.0 °F 36% 29.93 in 10.0 mi West 5.8 mph - N/A   Scattered Clouds
4:54 PM 93.0 °F 93.8 °F 62.1 °F 36% 29.91 in 10.0 mi WNW 6.9 mph - N/A   Partly Cloudy
5:54 PM 91.9 °F 91.8 °F 61.0 °F 35% 29.91 in 10.0 mi West 8.1 mph - N/A   Partly Cloudy
6:54 PM 87.1 °F 87.5 °F 62.1 °F 43% 29.93 in 10.0 mi WNW 4.6 mph - N/A   Partly Cloudy
7:54 PM 84.0 °F 84.5 °F 62.1 °F 47% 29.94 in 10.0 mi West 4.6 mph - N/A   Clear
8:54 PM 81.0 °F 81.9 °F 62.1 °F 52% 29.96 in 10.0 mi West 4.6 mph - N/A   Clear
9:54 PM 77.0 °F - 63.0 °F 62% 29.97 in 10.0 mi West 6.9 mph - N/A   Clear
10:54 PM 78.1 °F - 62.1 °F 58% 29.98 in 10.0 mi West 3.5 mph - N/A   Clear
11:54 PM 77.0 °F - 63.0 °F 62% 29.98 in 10.0 mi Calm Calm - N/A   Clear